Location: Proctor
(47.8934°N, 114.3048°W)
Time: 16:30:42
(UTC+00:00)

Courier 1B Rocket - Pass Details

Date: 17 June 2024
Orbit: 920 x 1201 km, 28.2° (Epoch: 16 July)

Event Time Altitude Azimuth Distance (km) Brightness Sun altitude
Rises 12:18:53 0° 217° (SW) 3,857 7.5 4.9°
Reaches altitude 10° 12:23:23 10° 191° (S) 2,969 7.2 5.6°
Maximum altitude 12:26:27 13° 166° (SSE) 2,786 7.3 6.0°
Drops below altitude 10° 12:29:36 10° 141° (SE) 3,049 7.8 6.5°
Sets 12:34:21 0° 116° (ESE) 4,057 8.8 7.2°
